SCP
0 0 0 0 0 0 0 0 0 0 0 0 0 0 0 0 0 0 0 0 0 0 0 0 0 0 0 0 0 0 0 0 0 0 0 0 0 0 0 0 0 0 0 0 0
0 0 0 0 0 0 0 0 0 0 0 0 0 0 0 0 0 0 0 0 0 0 0 0 0 0 0 0 0 0 0 0 0 0 0 0 0 0 0 0 0 0 0 0 0
0 0 0 0 0 0 0 0 0 0 0 0 0 0 0 0 0 0 0 0 0 0 0 0 0 0 0 0 0 0 0 0 0 0 0 0 0 0 0 0 0 0 0 0 0
0 0 0 0 0 0 0 0 0 0 0 0 0 0 0 0 0 0 0 0 0 0 0 0 0 0 0 0 0 0 0 0 0 0 0 0 0 0 0 0 0 0 0 0 0
0 0 0 0 0 0 0 0 0 0 0 0 0 0 0 0 0 0 0 0 0 0 0 0 0 0 0 0 0 0 0 0 0 0 0 0 0 0 0 0 0 0 0 0 0
0 0 0 0 0 0 0 0 0 0 0 0 0 0 0 0 0 0 0 0 0 0 0 0 0 0 0 0 0 0 0 0 0 0 0 0 0 0 0 0 0 0 0 0 0
0 0 0 0 0 0 0 0 0 0 0 0 0 0 0 0 0 0 0 0 0 0 0 0 0 0 0 0 0 0 0 0 0 0 0 0 0 0 0 0 0 0 0 0 0
0 0 0 0 0 0 0 0 0 0 0 0 0 0 0 0 0 0 0 0 0 0 0 0 0 0 0 0 0 0 0 0 0 0 0 0 0 0 0 0 0 0 0 0 0
0 0 0 0 0 0 0 0 0 0 0 0 0 0 0 0 0 0 0 0 0 0 0 0 0 0 0 0 0 0 0 0 0 0 0 0 0 0 0 0 0 0 0 0 0
0 0 0 0 0 0 0 0 0 0 0 0 0 0 0 0 0 0 0 0 0 0 0 0 0 0 0 0 0 0 0 0 0 0 0 0 0 0 0 0 0 0 0 0 0
0 0 -0 -0 0 0 0 0 0 0 0 0 0 0 0 0 0 0 0 0 0 0 0 0 0 0 0 0 0 0 0 0 0 0 0 0 0 0 0 0 0 0 0 0 0
-0 -0 -0 -0 -0 0 0 0 0 0 0 0 0 0 0 0 0 0 0 0 0 0 0 0 0 0 0 0 0 0 0 0 0 0 0 0 0 0 0 0 0 0 0 0 0
-0 0 -0 0 -0 0 0 0 -0 0 0 0 0 0 0 0 0 0 0 0 0 0 0 0 0 0 0 0 0 0 0 0 0 0 0 0 0 -0 0 -0 0 0 0 0 0
0 0 0 -0 -0 0 0 0 -0 0 0 0 0 0 0 0 0 0 0 0 0 0 0 0 0 0 0 0 0 0 0 0 0 0 0 0 0 0 0 0 0 0 0 0 0
-0 -0 0 -0 -0 0 -0 0 -0 0 0 0 0 0 0 0 0 0 0 0 0 0 0 0 0 0 0 0 0 0 0 0 0 0 0 0 0 0 -0 0 0 0 0 0 0
-0 0 0 0 -0 0 -0 0 -0 0 0 0 0 0 0 0 0 0 0 0 0 0 0 0 0 0 0 0 0 0 0 0 0 0 0 -0 0 0 0 0 0 0 0 0 0
0 -0 0 0 0 0 -0 0 0 0 0 0 0 0 0 0 0 0 0 0 0 0 0 0 0 0 0 0 0 0 0 0 0 0 0 0 0 0 0 0 0 0 0 0 0
0 0 0 0 0 0 0 0 0 0 0 0 0 0 0 0 0 0 0 0 0 0 0 0 0 0 0 0 0 0 0 0 0 0 0 0 0 0 0 0 0 0 0 0 0
0 0 -0 0 0 0 0 0 0 0 0 0 0 0 0 0 0 0 0 0 0 0 0 0 0 0 0 0 0 0 0 0 0 0 0 0 0 0 0 0 0 0 0 0 0
0 0 0 0 0 0 0 0 0 0 0 0 0 0 0 0 0 0 0 0 0 0 0 0 0 0 0 0 0 0 0 0 0 0 0 0 0 0 0 0 0 0 0 0 0
-0 0 0 -0 0 0 0 0 0 0 -0 0 0 0 0 0 0 0 0 0 0 0 0 0 0 0 0 0 0 0 0 0 0 0 0 0 0 0 0 0 0 0 0 0 0
0 0 0 0 0 0 0 0 0 0 0 0 0 0 0 0 0 0 0 0 0 0 0 0 0 0 0 0 0 0 0 0 0 0 0 0 0 0 0 0 0 0 0 0 -0
0 0 0 0 0 0 0 0 0 0 0 0 0 0 0 -0 0 0 0 0 0 0 0 0 0 0 -0 0 0 0 0 0 0 0 0 0 0 0 0 0 0 0 0 0 0
0 0 0 0 0 0 0 0 0 0 0 0 0 0 0 0 0 0 0 0 0 0 0 0 0 -0 -0 0 0 0 0 0 0 0 0 0 0 0 0 0 0 0 0 0 0
0 0 0 0 0 0 0 0 0 0 0 0 0 0 0 0 0 0 0 0 0 0 0 0 0 0 0 0 0 0 0 0 0 0 0 0 0 0 0 -0 -0 -0 0 0 0
0 0 0 0 -0 0 0 0 0 0 0 0 0 0 0 0 0 0 0 0 0 0 0 0 0 0 0 -0 -0 -0 -0 -0 0 0 0 0 0 0 0 0 0 0 -0 -0 0
0 0 0 0 0 0 0 0 0 0 0 0 0 0 0 0 0 0 0 0 0 0 0 0 0 0 0 0 -0 0 0 0 0 0 0 0 0 0 0 0 0 -0 -0 0 0
Wind_Speed_500mb
42 41 34 32 26 31 34 33 35 33 30 28 23 22 21 21 26 39 44 32 41 37 15 9 15 21 22 29 35 29 14 22 30 29 23 35 15 14 16 24 29 13 25 7 18
37 38 45 42 28 29 35 33 36 34 30 30 23 18 16 15 12 31 37 18 28 31 33 18 20 24 32 29 23 15 17 22 22 20 19 31 19 21 11 28 25 39 27 16 8
42 41 40 36 39 34 29 31 30 40 30 29 23 15 15 11 13 30 32 34 35 35 31 22 20 26 28 33 37 21 25 19 32 44 23 19 34 20 22 13 22 28 32 31 22
43 45 44 42 37 35 33 30 24 41 29 29 22 16 19 21 10 14 25 38 32 23 24 27 25 20 14 22 32 32 31 40 40 48 20 11 29 30 40 29 36 46 34 28 33
43 43 44 48 41 40 35 36 31 34 31 27 21 16 22 18 20 10 20 32 35 32 32 30 32 29 21 19 30 21 30 35 30 34 31 31 27 29 42 41 41 43 47 41 25
48 49 49 47 48 49 39 35 32 30 31 23 21 18 27 23 17 27 11 10 21 35 32 33 14 18 13 18 16 13 17 27 36 35 24 29 27 40 29 49 53 56 54 46 44
51 54 56 51 51 46 44 37 31 34 33 25 23 20 20 30 8 17 26 11 14 31 38 28 16 8 9 9 22 13 15 22 30 33 19 18 26 34 59 60 57 53 55 62 62
55 57 59 58 53 47 51 41 34 30 37 29 25 20 16 26 22 20 14 14 10 16 33 19 24 5 3 7 3 6 17 14 19 36 30 29 24 23 41 55 61 62 63 64 60
54 53 56 57 54 49 44 42 39 37 38 35 31 21 15 21 40 23 23 22 17 16 14 17 16 11 11 4 7 14 11 21 14 15 8 18 11 24 36 27 26 36 42 47 63
53 54 48 45 46 39 42 36 36 21 35 28 16 17 24 22 27 35 31 22 25 26 21 18 15 10 9 13 10 10 17 14 14 8 7 16 24 23 44 47 36 39 44 40 42
48 48 47 44 37 29 36 15 17 17 66 15 34 3 25 30 33 40 36 33 28 31 11 17 8 16 22 23 23 21 14 21 19 19 16 17 28 27 37 44 46 46 51 56 59
42 46 42 40 32 27 28 13 13 5 11 32 10 30 30 34 23 34 42 27 22 21 15 6 16 17 15 9 6 13 14 21 22 20 11 20 33 33 41 44 50 49 52 61 62
40 42 40 39 31 24 13 27 34 17 8 31 15 31 30 19 18 44 50 30 24 25 23 11 5 19 22 11 8 14 15 18 22 21 21 24 29 20 12 41 55 64 69 66 64
45 40 39 34 21 20 20 27 37 36 4 18 12 21 20 17 13 39 45 23 13 28 22 18 11 7 9 14 10 13 10 13 14 10 7 14 13 15 17 14 12 26 34 43 47
42 35 29 24 28 19 24 20 16 16 11 25 17 26 29 14 42 29 45 12 22 17 10 2 5 11 10 8 11 5 11 11 10 12 14 9 8 15 19 19 12 12 28 47 37
42 47 48 45 33 26 25 25 14 7 7 7 15 26 29 22 6 40 30 6 4 7 17 8 12 2 7 6 5 12 4 4 8 3 8 21 19 25 11 20 12 5 27 31 26
54 61 48 34 39 21 19 19 7 10 13 15 11 26 31 22 16 30 21 15 9 10 16 8 17 8 5 2 5 10 4 2 3 5 13 2 16 31 25 28 25 9 30 35 47
60 41 20 22 20 41 13 2 8 10 3 10 18 33 19 28 14 22 23 16 20 15 12 9 7 28 17 15 11 19 11 6 9 6 7 10 14 11 3 15 21 36 41 46 37
55 33 28 9 44 52 18 5 7 8 19 20 30 9 10 24 14 19 21 14 22 21 8 10 3 21 24 16 13 11 13 5 11 12 10 11 11 22 28 33 27 21 30 36 34
31 18 37 35 46 44 3 5 3 14 33 30 11 14 15 30 15 22 25 25 23 29 17 6 4 4 12 6 14 12 6 3 2 6 12 10 14 14 17 11 17 17 5 10 9
8 12 23 36 33 8 3 6 9 15 36 6 15 17 19 25 13 20 19 5 30 24 25 10 0 7 9 16 17 11 14 4 6 6 7 13 8 9 14 11 8 13 7 16 16
10 5 21 15 3 7 3 6 5 5 11 6 5 21 23 28 19 16 20 6 35 27 22 15 5 6 21 17 26 19 16 26 7 11 8 10 29 38 32 9 14 25 31 11 18
7 11 7 7 3 5 7 8 3 6 7 4 5 8 30 22 12 17 17 13 10 12 20 15 6 4 4 5 13 13 19 20 29 19 31 18 25 18 29 22 24 34 37 32 42
6 5 7 6 7 3 4 1 8 9 9 16 13 7 12 19 10 14 12 5 16 13 10 26 6 10 6 5 3 7 13 18 18 11 23 42 60 48 40 36 8 23 41 56 19
9 5 6 4 4 15 7 7 12 8 8 9 5 5 11 11 7 7 15 13 11 9 9 3 7 8 15 25 24 28 33 33 32 35 27 50 49 56 43 43 42 33 20 28 19
8 9 10 5 30 22 11 1 3 11 9 4 5 10 5 8 11 15 12 13 11 15 10 6 5 6 11 30 31 30 32 35 36 36 36 43 50 39 42 42 27 20 24 25 27
17 10 6 3 7 4 6 7 7 3 10 18 6 7 13 16 17 11 12 5 7 13 18 9 4 3 8 20 25 11 10 11 18 22 22 23 37 33 28 18 5 13 22 29 38
Wind_Direction_500mb
296 277 287 293 311 294 289 287 273 284 299 293 284 278 273 258 246 229 232 236 229 247 253 162 212 216 216 230 227 221 240 237 242 251 263 272 296 271 201 259 277 234 226 173 150
332 327 290 277 282 303 279 284 269 270 287 293 281 272 266 272 236 230 238 229 222 226 225 203 203 201 210 219 224 214 219 239 246 253 262 319 260 271 259 244 242 273 226 185 190
335 334 329 315 269 275 291 270 269 258 274 289 275 258 236 220 253 251 236 218 231 233 210 201 219 202 223 226 218 218 245 237 242 268 301 326 317 307 259 241 256 235 236 232 213
332 331 327 325 317 301 280 268 271 258 269 281 261 240 223 196 232 189 197 219 220 200 188 211 222 221 229 236 228 241 236 238 264 278 320 294 288 288 282 268 264 272 282 276 204
324 326 323 321 318 310 286 267 263 255 239 267 251 225 223 215 229 217 204 216 224 205 199 203 205 210 227 222 230 230 245 257 261 261 285 287 269 275 280 282 262 267 272 277 271
318 320 319 318 315 314 293 260 252 272 240 250 237 215 217 242 245 221 169 191 201 207 193 201 202 239 279 268 241 256 279 273 269 274 252 261 258 257 254 257 268 266 263 262 261
313 313 314 313 309 307 307 279 242 252 241 238 219 202 223 226 206 216 195 171 214 221 191 195 214 156 18 309 311 284 303 277 258 249 240 263 257 251 253 253 258 256 249 250 252
311 309 309 308 302 295 297 273 252 231 233 223 201 175 234 221 217 186 187 199 169 201 187 188 198 152 162 43 269 257 246 260 246 220 225 210 254 263 271 237 236 244 251 254 247
308 305 302 303 306 304 290 280 251 228 230 198 186 173 230 204 206 183 174 172 157 144 165 155 162 180 164 211 233 214 263 217 251 168 192 199 263 259 244 263 253 241 258 245 240
313 312 309 303 306 300 300 287 245 238 213 178 186 185 223 209 184 182 163 165 158 157 138 157 184 187 188 185 199 212 213 261 288 124 178 248 261 276 288 285 264 255 265 257 255
317 315 315 316 309 307 309 276 240 191 176 181 185 215 147 146 158 170 163 155 160 161 169 186 183 204 201 208 250 302 310 304 311 320 330 276 273 266 269 264 262 254 251 254 254
320 319 321 315 314 305 296 253 252 96 179 189 151 206 151 140 139 167 166 158 171 194 138 138 235 219 246 273 300 260 273 277 279 272 301 301 283 278 259 256 251 252 250 250 254
323 322 323 323 316 309 294 259 272 239 214 209 196 173 157 171 149 169 174 176 185 201 173 198 64 199 237 239 212 260 257 274 290 317 315 280 281 237 275 234 239 243 247 254 255
328 321 317 327 334 313 307 311 259 226 180 155 195 169 171 181 138 168 180 174 185 203 209 231 208 162 194 214 208 264 355 330 295 338 260 26 291 288 274 271 186 218 229 236 245
318 310 305 304 303 316 329 324 211 302 161 146 160 159 166 199 125 179 180 172 192 200 149 191 194 203 206 225 208 224 59 360 324 300 353 228 240 259 222 246 248 299 277 242 247
314 310 302 278 269 278 299 307 138 279 155 115 139 170 153 166 102 155 176 163 288 232 194 190 51 303 210 186 263 59 86 245 287 250 256 206 199 274 208 237 245 56 314 317 289
315 314 293 275 234 217 271 135 135 262 164 130 144 155 158 153 129 163 165 184 157 141 213 248 229 152 263 127 164 220 133 281 262 207 232 51 214 244 310 293 286 325 332 293 281
328 336 335 269 219 184 205 160 248 117 133 177 138 143 162 146 139 174 172 187 232 236 121 179 205 194 169 211 178 197 188 206 269 237 288 298 244 247 262 305 266 290 282 273 278
333 13 15 88 164 170 152 146 295 113 138 133 124 110 127 177 139 167 186 195 200 205 202 162 276 145 158 202 237 154 210 309 315 272 273 223 280 297 266 269 269 263 280 237 263
328 55 68 108 142 160 174 295 228 277 122 148 97 184 147 179 155 185 181 200 213 196 217 32 132 211 143 202 230 225 172 130 139 259 267 235 266 256 322 332 325 300 10 21 320
25 77 106 122 140 61 282 354 35 279 156 262 141 143 154 165 155 183 181 164 192 184 198 195 210 122 84 206 194 189 236 204 343 236 250 308 228 0 338 330 335 323 328 324 311
34 94 130 117 76 261 26 303 341 39 1 15 120 138 148 166 162 184 198 266 181 162 182 197 151 221 216 222 213 199 196 211 222 232 229 282 279 260 259 337 303 288 255 274 277
60 86 92 39 25 22 348 350 289 23 342 44 75 30 147 167 142 221 99 96 127 165 168 172 175 253 283 163 218 215 229 233 230 268 248 267 250 310 316 310 303 290 306 282 297
57 70 56 336 287 130 331 123 112 336 42 65 79 68 122 130 328 116 100 152 178 197 87 166 187 209 219 184 59 232 236 248 257 255 266 246 278 278 283 279 26 288 265 280 300
40 138 170 176 76 66 293 34 71 29 21 39 76 95 138 146 100 128 143 126 171 185 153 153 232 272 263 277 279 273 273 267 249 252 258 281 281 285 290 289 291 297 6 347 345
34 10 350 17 145 194 187 26 163 89 16 80 162 139 26 108 55 167 155 182 168 173 185 184 268 21 279 255 247 257 259 255 261 264 264 268 271 280 283 294 277 28 349 328 318
18 27 331 288 249 276 32 72 86 83 58 27 72 131 89 47 62 49 25 17 83 164 184 158 147 359 261 326 313 267 236 231 271 255 254 272 281 304 284 294 51 319 308 306 298
Wind_Speed_850mb
42 41 34 32 26 31 34 33 35 33 30 28 23 22 21 21 26 39 44 32 41 37 15 9 15 21 22 29 35 29 14 22 30 29 23 35 15 14 16 24 29 13 25 7 18
37 38 45 42 28 29 35 33 36 34 30 30 23 18 16 15 12 31 37 18 28 31 33 18 20 24 32 29 23 15 17 22 22 20 19 31 19 21 11 28 25 39 27 16 8
42 41 40 36 39 34 29 31 30 40 30 29 23 15 15 11 13 30 32 34 35 35 31 22 20 26 28 33 37 21 25 19 32 44 23 19 34 20 22 13 22 28 32 31 22
43 45 44 42 37 35 33 30 24 41 29 29 22 16 19 21 10 14 25 38 32 23 24 27 25 20 14 22 32 32 31 40 40 48 20 11 29 30 40 29 36 46 34 28 33
43 43 44 48 41 40 35 36 31 34 31 27 21 16 22 18 20 10 20 32 35 32 32 30 32 29 21 19 30 21 30 35 30 34 31 31 27 29 42 41 41 43 47 41 25
48 49 49 47 48 49 39 35 32 30 31 23 21 18 27 23 17 27 11 10 21 35 32 33 14 18 13 18 16 13 17 27 36 35 24 29 27 40 29 49 53 56 54 46 44
51 54 56 51 51 46 44 37 31 34 33 25 23 20 20 30 8 17 26 11 14 31 38 28 16 8 9 9 22 13 15 22 30 33 19 18 26 34 59 60 57 53 55 62 62
55 57 59 58 53 47 51 41 34 30 37 29 25 20 16 26 22 20 14 14 10 16 33 19 24 5 3 7 3 6 17 14 19 36 30 29 24 23 41 55 61 62 63 64 60
54 53 56 57 54 49 44 42 39 37 38 35 31 21 15 21 40 23 23 22 17 16 14 17 16 11 11 4 7 14 11 21 14 15 8 18 11 24 36 27 26 36 42 47 63
53 54 48 45 46 39 42 36 36 21 35 28 16 17 24 22 27 35 31 22 25 26 21 18 15 10 9 13 10 10 17 14 14 8 7 16 24 23 44 47 36 39 44 40 42
48 48 47 44 37 29 36 15 17 17 66 15 34 3 25 30 33 40 36 33 28 31 11 17 8 16 22 23 23 21 14 21 19 19 16 17 28 27 37 44 46 46 51 56 59
42 46 42 40 32 27 28 13 13 5 11 32 10 30 30 34 23 34 42 27 22 21 15 6 16 17 15 9 6 13 14 21 22 20 11 20 33 33 41 44 50 49 52 61 62
40 42 40 39 31 24 13 27 34 17 8 31 15 31 30 19 18 44 50 30 24 25 23 11 5 19 22 11 8 14 15 18 22 21 21 24 29 20 12 41 55 64 69 66 64
45 40 39 34 21 20 20 27 37 36 4 18 12 21 20 17 13 39 45 23 13 28 22 18 11 7 9 14 10 13 10 13 14 10 7 14 13 15 17 14 12 26 34 43 47
42 35 29 24 28 19 24 20 16 16 11 25 17 26 29 14 42 29 45 12 22 17 10 2 5 11 10 8 11 5 11 11 10 12 14 9 8 15 19 19 12 12 28 47 37
42 47 48 45 33 26 25 25 14 7 7 7 15 26 29 22 6 40 30 6 4 7 17 8 12 2 7 6 5 12 4 4 8 3 8 21 19 25 11 20 12 5 27 31 26
54 61 48 34 39 21 19 19 7 10 13 15 11 26 31 22 16 30 21 15 9 10 16 8 17 8 5 2 5 10 4 2 3 5 13 2 16 31 25 28 25 9 30 35 47
60 41 20 22 20 41 13 2 8 10 3 10 18 33 19 28 14 22 23 16 20 15 12 9 7 28 17 15 11 19 11 6 9 6 7 10 14 11 3 15 21 36 41 46 37
55 33 28 9 44 52 18 5 7 8 19 20 30 9 10 24 14 19 21 14 22 21 8 10 3 21 24 16 13 11 13 5 11 12 10 11 11 22 28 33 27 21 30 36 34
31 18 37 35 46 44 3 5 3 14 33 30 11 14 15 30 15 22 25 25 23 29 17 6 4 4 12 6 14 12 6 3 2 6 12 10 14 14 17 11 17 17 5 10 9
8 12 23 36 33 8 3 6 9 15 36 6 15 17 19 25 13 20 19 5 30 24 25 10 0 7 9 16 17 11 14 4 6 6 7 13 8 9 14 11 8 13 7 16 16
10 5 21 15 3 7 3 6 5 5 11 6 5 21 23 28 19 16 20 6 35 27 22 15 5 6 21 17 26 19 16 26 7 11 8 10 29 38 32 9 14 25 31 11 18
7 11 7 7 3 5 7 8 3 6 7 4 5 8 30 22 12 17 17 13 10 12 20 15 6 4 4 5 13 13 19 20 29 19 31 18 25 18 29 22 24 34 37 32 42
6 5 7 6 7 3 4 1 8 9 9 16 13 7 12 19 10 14 12 5 16 13 10 26 6 10 6 5 3 7 13 18 18 11 23 42 60 48 40 36 8 23 41 56 19
9 5 6 4 4 15 7 7 12 8 8 9 5 5 11 11 7 7 15 13 11 9 9 3 7 8 15 25 24 28 33 33 32 35 27 50 49 56 43 43 42 33 20 28 19
8 9 10 5 30 22 11 1 3 11 9 4 5 10 5 8 11 15 12 13 11 15 10 6 5 6 11 30 31 30 32 35 36 36 36 43 50 39 42 42 27 20 24 25 27
17 10 6 3 7 4 6 7 7 3 10 18 6 7 13 16 17 11 12 5 7 13 18 9 4 3 8 20 25 11 10 11 18 22 22 23 37 33 28 18 5 13 22 29 38
Wind_Direction_850mb
296 277 287 293 311 294 289 287 273 284 299 293 284 278 273 258 246 229 232 236 229 247 253 162 212 216 216 230 227 221 240 237 242 251 263 272 296 271 201 259 277 234 226 173 150
332 327 290 277 282 303 279 284 269 270 287 293 281 272 266 272 236 230 238 229 222 226 225 203 203 201 210 219 224 214 219 239 246 253 262 319 260 271 259 244 242 273 226 185 190
335 334 329 315 269 275 291 270 269 258 274 289 275 258 236 220 253 251 236 218 231 233 210 201 219 202 223 226 218 218 245 237 242 268 301 326 317 307 259 241 256 235 236 232 213
332 331 327 325 317 301 280 268 271 258 269 281 261 240 223 196 232 189 197 219 220 200 188 211 222 221 229 236 228 241 236 238 264 278 320 294 288 288 282 268 264 272 282 276 204
324 326 323 321 318 310 286 267 263 255 239 267 251 225 223 215 229 217 204 216 224 205 199 203 205 210 227 222 230 230 245 257 261 261 285 287 269 275 280 282 262 267 272 277 271
318 320 319 318 315 314 293 260 252 272 240 250 237 215 217 242 245 221 169 191 201 207 193 201 202 239 279 268 241 256 279 273 269 274 252 261 258 257 254 257 268 266 263 262 261
313 313 314 313 309 307 307 279 242 252 241 238 219 202 223 226 206 216 195 171 214 221 191 195 214 156 18 309 311 284 303 277 258 249 240 263 257 251 253 253 258 256 249 250 252
311 309 309 308 302 295 297 273 252 231 233 223 201 175 234 221 217 186 187 199 169 201 187 188 198 152 162 43 269 257 246 260 246 220 225 210 254 263 271 237 236 244 251 254 247
308 305 302 303 306 304 290 280 251 228 230 198 186 173 230 204 206 183 174 172 157 144 165 155 162 180 164 211 233 214 263 217 251 168 192 199 263 259 244 263 253 241 258 245 240
313 312 309 303 306 300 300 287 245 238 213 178 186 185 223 209 184 182 163 165 158 157 138 157 184 187 188 185 199 212 213 261 288 124 178 248 261 276 288 285 264 255 265 257 255
317 315 315 316 309 307 309 276 240 191 176 181 185 215 147 146 158 170 163 155 160 161 169 186 183 204 201 208 250 302 310 304 311 320 330 276 273 266 269 264 262 254 251 254 254
320 319 321 315 314 305 296 253 252 96 179 189 151 206 151 140 139 167 166 158 171 194 138 138 235 219 246 273 300 260 273 277 279 272 301 301 283 278 259 256 251 252 250 250 254
323 322 323 323 316 309 294 259 272 239 214 209 196 173 157 171 149 169 174 176 185 201 173 198 64 199 237 239 212 260 257 274 290 317 315 280 281 237 275 234 239 243 247 254 255
328 321 317 327 334 313 307 311 259 226 180 155 195 169 171 181 138 168 180 174 185 203 209 231 208 162 194 214 208 264 355 330 295 338 260 26 291 288 274 271 186 218 229 236 245
318 310 305 304 303 316 329 324 211 302 161 146 160 159 166 199 125 179 180 172 192 200 149 191 194 203 206 225 208 224 59 360 324 300 353 228 240 259 222 246 248 299 277 242 247
314 310 302 278 269 278 299 307 138 279 155 115 139 170 153 166 102 155 176 163 288 232 194 190 51 303 210 186 263 59 86 245 287 250 256 206 199 274 208 237 245 56 314 317 289
315 314 293 275 234 217 271 135 135 262 164 130 144 155 158 153 129 163 165 184 157 141 213 248 229 152 263 127 164 220 133 281 262 207 232 51 214 244 310 293 286 325 332 293 281
328 336 335 269 219 184 205 160 248 117 133 177 138 143 162 146 139 174 172 187 232 236 121 179 205 194 169 211 178 197 188 206 269 237 288 298 244 247 262 305 266 290 282 273 278
333 13 15 88 164 170 152 146 295 113 138 133 124 110 127 177 139 167 186 195 200 205 202 162 276 145 158 202 237 154 210 309 315 272 273 223 280 297 266 269 269 263 280 237 263
328 55 68 108 142 160 174 295 228 277 122 148 97 184 147 179 155 185 181 200 213 196 217 32 132 211 143 202 230 225 172 130 139 259 267 235 266 256 322 332 325 300 10 21 320
25 77 106 122 140 61 282 354 35 279 156 262 141 143 154 165 155 183 181 164 192 184 198 195 210 122 84 206 194 189 236 204 343 236 250 308 228 0 338 330 335 323 328 324 311
34 94 130 117 76 261 26 303 341 39 1 15 120 138 148 166 162 184 198 266 181 162 182 197 151 221 216 222 213 199 196 211 222 232 229 282 279 260 259 337 303 288 255 274 277
60 86 92 39 25 22 348 350 289 23 342 44 75 30 147 167 142 221 99 96 127 165 168 172 175 253 283 163 218 215 229 233 230 268 248 267 250 310 316 310 303 290 306 282 297
57 70 56 336 287 130 331 123 112 336 42 65 79 68 122 130 328 116 100 152 178 197 87 166 187 209 219 184 59 232 236 248 257 255 266 246 278 278 283 279 26 288 265 280 300
40 138 170 176 76 66 293 34 71 29 21 39 76 95 138 146 100 128 143 126 171 185 153 153 232 272 263 277 279 273 273 267 249 252 258 281 281 285 290 289 291 297 6 347 345
34 10 350 17 145 194 187 26 163 89 16 80 162 139 26 108 55 167 155 182 168 173 185 184 268 21 279 255 247 257 259 255 261 264 264 268 271 280 283 294 277 28 349 328 318
18 27 331 288 249 276 32 72 86 83 58 27 72 131 89 47 62 49 25 17 83 164 184 158 147 359 261 326 313 267 236 231 271 255 254 272 281 304 284 294 51 319 308 306 298